Location: Essenrode
(52.3703°N, 10.6343°E)
Time: 00:01:58
(UTC+00:00)

Daily predictions for brighter satellites

Satellite Brightness Start Highest point End
(mag) Time Altitude Azimuth Time Altitude Azimuth Time Altitude Azimuth
SL-4 R/B 1.8 00:00:14 10° WSW 00:04:18 77° S 00:08:11 10° E
Cosmos 1328 3.9 00:02:26 23° SSW 00:04:26 57° WNW 00:08:01 10° N
OPS 8737 4.2 00:01:36 10° NW 00:04:34 52° SW 00:06:00 26° SSE
Resurs 1-4 Rocket 4.5 00:05:17 10° ENE 00:07:34 13° E 00:09:50 10° ESE
Cosmos 2082 Rocket 3.7 00:02:42 10° NNW 00:07:59 37° NE 00:13:16 10° ESE
Cosmos 2278 Rocket 3.7 00:11:06 11° SSE 00:15:18 25° ESE 00:19:48 10° NE
SJ 16-02 1.7 00:15:31 18° SW 00:18:38 59° WNW 00:22:56 10° NNE
CZ-2C R/B 2.6 00:14:32 16° SSE 00:18:44 80° WSW 00:24:07 10° NNW
USA 229 DEB 4.0 00:12:00 10° NW 00:19:20 89° SW 00:27:26 10° SE
USA 229 4.0 00:12:06 10° NW 00:19:26 89° SW 00:27:32 10° SE
Cosmos 2151 Rocket 3.7 00:16:35 10° N 00:21:02 77° E 00:24:38 15° SSE
CZ-2D R/B 4.4 00:18:34 10° NE 00:21:48 16° E 00:25:01 10° ESE
Cosmos 1943 Rocket 3.7 00:17:38 11° SSE 00:21:50 24° ESE 00:26:11 10° NE
Cosmos 371 Rocket 3.3 00:19:30 20° SSW 00:22:52 76° ESE 00:27:43 10° NNE
Okean 2 Rocket 3.3 00:19:28 10° N 00:23:58 69° ENE 00:27:50 13° SSE
USA 307 2.5 00:20:46 10° WSW 00:24:38 83° SSE 00:28:36 10° ENE
Cosmos 1741 Rocket 4.0 00:26:35 18° SSW 00:30:31 82° ESE 00:35:52 10° NNE
Okean 1 Rocket 3.4 00:29:38 10° N 00:34:06 67° ENE 00:38:19 11° SSE
Cosmos 375 4.5 00:31:23 10° NW 00:35:58 60° SW 00:39:46 10° SSE
Cosmos 1025 Rocket 3.7 00:37:03 14° SSE 00:40:29 48° E 00:44:36 10° NNE
Cosmos 1844 Rocket 4.2 00:38:20 10° WSW 00:43:20 31° NW 00:48:21 10° NNE
Nadezhda 4 Rocket 4.1 00:38:07 15° S 00:43:23 80° E 00:49:40 10° NNE
Cosmos 1378 Rocket 3.6 00:40:25 18° SSW 00:43:38 78° WNW 00:48:02 10° N
USA 234 3.3 00:37:52 10° ENE 00:44:25 73° SSE 00:50:58 10° SW
In-Cosmos 22 Rocket 4.3 00:44:33 16° S 00:49:12 86° E 00:55:01 10° NNE
Cosmos 1340 Rocket 2.8 00:45:27 10° NNW 00:49:14 59° W 00:52:07 17° S
ADEOS II 4.2 00:49:19 10° NE 00:53:06 20° E 00:56:51 10° SE
USA 59 Rocket 2.0 00:52:02 10° W 00:53:50 13° WSW 00:54:18 12° SW
Cosmos 158 Rocket 3.9 00:48:58 10° NNW 00:54:07 82° WSW 00:59:05 10° SSE
Cosmos 1606 4.5 00:53:05 10° WNW 00:54:30 13° W 00:55:42 11° WSW
ATLAS 3B R/B 3.2 00:54:42 10° NW 01:02:17 52° WSW 01:09:34 10° SSE
Nimbus 7 Rocket 4.5 00:57:11 10° NNE 01:03:07 77° WNW 01:08:22 14° SSW
Cosmos 304 Rocket 4.3 01:00:52 13° SW 01:04:56 52° WNW 01:09:37 10° NNE
MOZ.5/SAFIR/RUBIN 5/SL-8 3.7 01:03:32 10° SSE 01:08:07 86° WSW 01:12:45 10° NNW
H-2A R/B 3.7 01:06:39 14° SW 01:08:37 21° W 01:11:25 10° NW
SOZ 4.2 01:07:09 10° W 01:09:12 79° S 01:12:22 10° E
FENGYUN 3A 4.3 01:05:23 10° NNE 01:10:36 49° E 01:15:48 10° S
Cosmos 2026 Rocket 4.2 01:06:31 10° S 01:12:46 75° E 01:18:58 10° NNE
H-2A R/B 2.5 01:09:23 10° NNE 01:13:17 50° E 01:17:10 10° S
Cosmos 1515 4.4 01:11:01 10° N 01:13:32 33° ENE 01:16:03 10° SE
Cosmos 1869 4.2 01:12:43 10° NNW 01:16:00 30° W 01:18:36 14° SSW
IDEFIX/ARIANE 42P 2.6 01:11:54 10° NNE 01:17:12 85° ESE 01:22:10 11° SSW
USA 305 0.6 01:15:33 10° WNW 01:17:57 65° SSW 01:19:28 10° ESE
Cosmos 1455 Rocket 3.0 01:15:55 10° N 01:20:19 89° WSW 01:24:39 10° S
ATLAS 2AS CENTAUR R/B 3.2 01:13:50 10° WSW 01:20:50 59° NW 01:27:38 10° NE
Cosmos 220 Rocket 4.2 01:17:23 10° NNW 01:21:32 69° ENE 01:25:42 10° SSE
Cosmos 1833 Rocket 3.8 01:17:04 10° NW 01:21:38 26° WSW 01:25:45 12° SSW
Cosmos 2221 Rocket 3.9 01:21:46 13° SSW 01:25:34 55° WNW 01:29:56 10° N
Cosmos 1812 2.2 01:24:16 10° NNW 01:27:27 69° W 01:30:36 10° S
MSX 3.9 01:22:54 10° NNE 01:28:41 88° WNW 01:34:25 10° SSW
NPP 3.7 01:27:09 10° NNE 01:32:36 87° WNW 01:38:00 10° SSW
CZ-2C R/B 4.1 01:28:31 10° N 01:33:32 37° WNW 01:38:17 10° SW
Meteor 1-11 4.4 01:31:27 11° SSW 01:37:03 70° WNW 01:42:54 10° N
ATLAS 5 CENTAUR R/B 3.2 01:35:43 10° SSE 01:37:28 14° ESE 01:39:18 10° E
Cosmos 2228 3.3 01:37:23 10° N 01:41:30 64° ENE 01:45:35 10° SSE
SL-4 R/B 1.8 01:38:16 10° W 01:42:14 70° SSW 01:46:00 10° ESE
Cosmos 332 Rocket 3.9 01:37:42 11° SSW 01:42:24 69° WNW 01:47:14 10° NNE
COSMOS 2406 3.3 01:37:06 10° NNW 01:42:54 89° ENE 01:48:40 10° SSE
Resurs 1-4 Rocket 2.3 01:43:00 10° NNE 01:48:17 73° ESE 01:53:33 10° S
Cosmos 1666 2.5 01:50:09 10° SSE 01:51:36 26° E 01:53:04 10° NNE
Cosmos 2082 Rocket 2.4 01:46:46 10° NW 01:52:19 54° WSW 01:57:51 10° S
USA 307 3.0 01:50:55 10° W 01:54:54 67° N 01:58:40 10° E
Meteor 1-27 4.3 01:49:46 10° NNW 01:55:37 82° W 02:01:28 10° S
SJ 16-02 3.8 01:56:01 10° WNW 01:57:47 12° NW 01:59:34 10° NNW
Cosmos 2278 Rocket 2.4 01:53:15 10° SW 01:58:52 70° WNW 02:04:34 10° NNE
Cosmos 2098 Rocket 2.6 01:55:34 10° NNW 01:59:29 62° W 02:02:47 10° S
CZ-2C R/B 4.5 01:57:08 10° WSW 01:59:53 14° W 02:02:40 10° NW
Timation 2 Rocket 4.5 01:54:32 10° WSW 02:00:19 50° NW 02:06:11 10° NNE
CZ-2D R/B 2.3 01:57:08 10° NNE 02:02:37 86° ESE 02:07:58 10° SSW
Cosmos 1544 Rocket 3.6 01:59:57 10° N 02:04:17 84° E 02:08:35 10° SSE
ALOS 2.6 02:00:29 10° NNE 02:05:03 64° ESE 02:09:35 10° S
Cosmos 1943 Rocket 2.3 01:59:35 10° SW 02:05:04 69° NW 02:10:37 10° NNE
SL-16 R/B 2.9 02:00:00 10° SSE 02:06:09 72° ENE 02:12:24 10° NNW
